Rutherfordton, NC

7:36 PM EDT on June 23, 2017 (GMT -0400)
Rutherford County-Marchman

Weather History for KFQD - May, 2014

Change the Weather History Date:

Tuesday, May 27, 2014

  Actual Average (KAVL) Record (KAVL)
Temperature  
Mean Temperature 74 °F -  
Max Temperature 86 °F 77 °F 93 °F (1890)
Min Temperature 62 °F 54 °F 36 °F (1961)
Cooling Degree Days 9    
Growing Degree Days 24 (Base 50)    
Moisture  
Dew Point 63 °F    
Average Humidity 78    
Maximum Humidity 98    
Minimum Humidity 44    
Precipitation  
Precipitation 0.00 in - - ()
Sea Level Pressure  
Sea Level Pressure 30.11 in    
Wind  
Wind Speed 3 mph (West)    
Max Wind Speed 12 mph    
Max Gust Speed 20 mph    
Visibility 9 miles    
Events Thunderstorm    
Averages and records for this station are not official NWS values.
T = Trace of Precipitation, MM = Missing Value Source: NWS Daily Summary

Daily Weather History Graph

Daily Weather History Graph

Search for Another Location

Airport or City:

Trip Planner

Search our weather history database for the weather conditions in past years. The results will help you decide how hot, cold, wet, or windy it might be!

Date:

Astronomy

May. 27, 2014 Rise Set
Actual Time 6:15 AM EDT 8:34 PM EDT
Civil Twilight 5:46 AM EDT 9:03 PM EDT
Nautical Twilight 5:11 AM EDT 9:39 PM EDT
Astronomical Twilight 4:32 AM EDT 10:18 PM EDT
Moon 5:33 AM EDT (5/27) 7:38 PM EDT (5/27)
Length of Visible Light 15h 16m
Length of Day
14h 18m
Waning Crescent, 1% of the Moon is Illuminated
May 27
Waning Crescent
May 28
New
Jun 5
First Quarter
Jun 13
Full
Jun 19
Last Quarter

Hourly Weather History & Observations

Time (EDT) Temp. Heat Index Dew Point Humidity Pressure Visibility Wind Dir Wind Speed Gust Speed Precip Events Conditions
12:15 AM 66.2 °F - 62.2 °F 87% 30.15 in 10.0 mi Calm Calm - N/A   Clear
12:35 AM 65.8 °F - 62.4 °F 89% 30.15 in 10.0 mi SE 3.5 mph - N/A   Clear
12:55 AM 67.1 °F - 63.3 °F 88% 30.15 in 10.0 mi Calm Calm - N/A   Clear
1:15 AM 63.5 °F - 61.9 °F 94% 30.15 in 7.0 mi WNW 9.2 mph - N/A   Scattered Clouds
1:35 AM 65.3 °F - 62.8 °F 92% 30.15 in 10.0 mi North 3.5 mph - N/A   Scattered Clouds
2:15 AM 63.1 °F - 61.9 °F 96% 30.14 in 7.0 mi Calm Calm - N/A   Mostly Cloudy
2:35 AM 63.5 °F - 62.4 °F 96% 30.14 in 7.0 mi Calm Calm - N/A   Clear
2:55 AM 64.6 °F - 62.8 °F 94% 30.13 in 7.0 mi Calm Calm - N/A   Scattered Clouds
3:15 AM 63.5 °F - 62.1 °F 95% 30.13 in 7.0 mi WNW 8.1 mph - N/A   Mostly Cloudy
3:35 AM 63.5 °F - 62.6 °F 97% 30.13 in 7.0 mi WNW 5.8 mph - N/A   Mostly Cloudy
3:55 AM 63.0 °F - 61.9 °F 96% 30.13 in 7.0 mi Calm Calm - N/A   Mostly Cloudy
4:15 AM 63.0 °F - 62.1 °F 97% 30.13 in 5.0 mi Calm Calm - N/A   Scattered Clouds
4:35 AM 63.7 °F - 62.1 °F 94% 30.13 in 7.0 mi Calm Calm - N/A   Clear
4:55 AM 63.5 °F - 62.2 °F 96% 30.13 in 7.0 mi SSE 3.5 mph - N/A   Clear
5:15 AM 62.6 °F - 61.9 °F 97% 30.13 in 5.0 mi Calm Calm - N/A   Clear
5:35 AM 63.7 °F - 62.2 °F 95% 30.13 in 7.0 mi Calm Calm - N/A   Clear
5:55 AM 64.0 °F - 62.2 °F 94% 30.13 in 7.0 mi Calm Calm - N/A   Clear
6:15 AM 63.1 °F - 61.9 °F 96% 30.13 in 7.0 mi WNW 5.8 mph - N/A   Clear
6:35 AM 62.2 °F - 61.7 °F 98% 30.13 in 4.0 mi WNW 5.8 mph - N/A   Clear
6:55 AM 63.3 °F - 62.1 °F 96% 30.14 in 5.0 mi North 3.5 mph - N/A   Clear
7:15 AM 62.8 °F - 61.9 °F 97% 30.14 in 4.0 mi West 6.9 mph - N/A   Clear
7:35 AM 63.9 °F - 62.8 °F 96% 30.14 in 5.0 mi West 6.9 mph - N/A   Clear
7:55 AM 64.6 °F - 63.1 °F 95% 30.14 in 5.0 mi Calm Calm - N/A   Clear
8:35 AM 66.7 °F - 64.4 °F 92% 30.14 in 7.0 mi West 4.6 mph - N/A   Clear
8:55 AM 67.3 °F - 64.8 °F 92% 30.15 in 7.0 mi Calm Calm - N/A   Mostly Cloudy
9:15 AM 69.1 °F - 64.6 °F 86% 30.15 in 10.0 mi Calm Calm - N/A   Mostly Cloudy
9:35 AM 71.1 °F - 64.4 °F 79% 30.15 in 10.0 mi Calm Calm - N/A   Mostly Cloudy
9:55 AM 71.6 °F - 64.8 °F 79% 30.15 in 10.0 mi West 3.5 mph - N/A   Overcast
10:15 AM 73.9 °F - 65.7 °F 75% 30.14 in 10.0 mi West 3.5 mph - N/A   Mostly Cloudy
10:35 AM 75.4 °F - 66.0 °F 73% 30.14 in 10.0 mi Calm Calm - N/A   Mostly Cloudy
10:55 AM 76.8 °F - 66.6 °F 70% 30.14 in 10.0 mi Calm Calm - N/A   Overcast
11:15 AM 78.3 °F - 66.6 °F 67% 30.14 in 10.0 mi West 4.6 mph - N/A   Overcast
11:35 AM 78.8 °F - 65.7 °F 64% 30.14 in 10.0 mi West 5.8 mph - N/A   Scattered Clouds
11:55 AM 77.5 °F - 65.7 °F 67% 30.14 in 10.0 mi Calm Calm - N/A   Clear
12:15 PM 76.3 °F - 64.9 °F 68% 30.14 in 10.0 mi West 4.6 mph - N/A   Mostly Cloudy
12:35 PM 76.3 °F - 64.9 °F 68% 30.14 in 10.0 mi Calm Calm - N/A   Overcast
12:55 PM 76.3 °F - 65.1 °F 68% 30.13 in 10.0 mi SW 3.5 mph - N/A   Mostly Cloudy
1:15 PM 76.8 °F - 64.4 °F 65% 30.12 in 10.0 mi Calm Calm - N/A   Scattered Clouds
1:35 PM 78.6 °F - 64.9 °F 63% 30.11 in 10.0 mi West 4.6 mph - N/A   Clear
2:15 PM 81.7 °F 82.4 °F 61.3 °F 50% 30.09 in 10.0 mi West 3.5 mph - N/A   Clear
2:35 PM 83.5 °F 84.5 °F 63.3 °F 50% 30.09 in 10.0 mi West 4.6 mph - N/A   Clear
2:55 PM 84.9 °F 85.6 °F 62.8 °F 47% 30.08 in 10.0 mi West 6.9 mph - N/A   Clear
3:15 PM 84.9 °F 86.1 °F 64.0 °F 49% 30.07 in 10.0 mi WSW 4.6 mph 19.6 mph N/A   Clear
3:55 PM 86.0 °F 86.3 °F 62.1 °F 44% 30.05 in 10.0 mi West 5.8 mph - N/A   Clear
4:15 PM 86.0 °F 86.3 °F 61.9 °F 44% 30.04 in 10.0 mi West 4.6 mph - N/A   Clear
4:35 PM 85.1 °F 85.7 °F 62.1 °F 46% 30.04 in 10.0 mi WNW 8.1 mph - N/A   Clear
4:55 PM 81.5 °F 82.9 °F 63.9 °F 55% 30.05 in 10.0 mi NNW 9.2 mph - N/A   Scattered Clouds
5:15 PM 80.8 °F 82.2 °F 63.9 °F 56% 30.04 in 10.0 mi North 6.9 mph - N/A Thunderstorm Clear
5:35 PM 77.4 °F - 64.4 °F 64% 30.06 in 10.0 mi West 3.5 mph - N/A Thunderstorm Thunderstorm
5:55 PM 75.6 °F - 61.9 °F 62% 30.06 in 10.0 mi SSE 6.9 mph - N/A Thunderstorm Thunderstorm
6:15 PM 74.8 °F - 59.4 °F 58% 30.05 in 10.0 mi South 3.5 mph - N/A Thunderstorm Clear
6:35 PM 74.1 °F - 60.6 °F 63% 30.05 in 10.0 mi SSW 3.5 mph - N/A   Clear
6:55 PM 75.4 °F - 60.1 °F 59% 30.05 in 10.0 mi Calm Calm - N/A   Clear
7:15 PM 75.2 °F - 62.1 °F 64% 30.04 in 10.0 mi Calm Calm - N/A Thunderstorm Clear
7:35 PM 73.0 °F - 63.5 °F 72% 30.04 in 10.0 mi Calm Calm - N/A   Clear
7:55 PM 71.6 °F - 64.2 °F 77% 30.05 in 10.0 mi SW 3.5 mph - N/A   Clear
8:15 PM 73.0 °F - 63.1 °F 71% 30.07 in 10.0 mi WNW 9.2 mph - N/A   Clear
8:35 PM 71.8 °F - 64.4 °F 77% 30.07 in 10.0 mi SW 3.5 mph - N/A   Scattered Clouds
8:55 PM 71.6 °F - 64.4 °F 78% 30.06 in 10.0 mi Calm Calm - N/A   Scattered Clouds
9:15 PM 71.1 °F - 64.8 °F 80% 30.06 in 10.0 mi Calm Calm - N/A   Clear
9:35 PM 71.1 °F - 64.4 °F 79% 30.06 in 10.0 mi Calm Calm - N/A   Clear
9:55 PM 69.4 °F - 64.4 °F 84% 30.07 in 10.0 mi Calm Calm - N/A   Clear
10:15 PM 68.9 °F - 64.4 °F 86% 30.08 in 10.0 mi Calm Calm - N/A   Clear
10:35 PM 67.3 °F - 64.0 °F 89% 30.08 in 10.0 mi Calm Calm - N/A   Clear
10:55 PM 67.6 °F - 64.4 °F 89% 30.08 in 10.0 mi Calm Calm - N/A   Clear
11:15 PM 66.7 °F - 64.4 °F 92% 30.08 in 10.0 mi Calm Calm - N/A   Clear
11:35 PM 66.7 °F - 64.4 °F 92% 30.07 in 10.0 mi Calm Calm - N/A   Clear
11:55 PM 66.9 °F - 64.4 °F 92% 30.07 in 10.0 mi West 11.5 mph - N/A   Clear